Find Starlink 11451

NORAD ID: 62561 Int'l Des: 2025-006 Owner: SPXS Country: US Constellation: starlink operational
LEOCIRCULAR

Current View

Loading 3D Globe...

About Starlink 11451

Starlink 11451 (NORAD 62561) is a starlink constellation satellite (v2 mini d2c) launched Jan 10, 2025 by SPXS of US. It operates in LEO, CIRCULAR orbit with a mass of 960.00 kg.

About Starlink 11451

Description loading...

Upcoming Passes

Passes for default location (London). Set your location on the main map for personalized predictions.

Altitude History

Loading altitude history...

Two-Line Element Set

1 62561U 25006H 26167.30004878 .00139686 00000-0 10720-2 0 9990
2 62561 43.0003 265.2884 0002303 267.4082 92.6523 15.70880959 82115
Epoch: Jun 16, 2026 • Age: 45 hours

Current Status

Altitude 364.7 km
Velocity 7.69 km/s
Sub-Earth Point -37.56°S, 155.44°E
Launch Date Jan 10, 2025
Age 1.4 years
Type internet

Technical Details

Classification Payload
Mass 960.00 kg
Dry Mass 910.00 kg
Total Mass 960.00 kg
Length 0.30 m
Diameter 4.10 m
Span 29.00 m
Shape Box + pan
Manufacturer SPXS
Bus Type Starlink V2MD
Phase Status In Orbit
Owner/State SPXS/US

Most Searched